When you browse on this site, cookies collect data to enhance your experience and personalize the content and advertising you see.
Visit our Privacy Policy to learn more. By continuing to use the site, you agree to this use of cookies and data.
  • In Lithuania
  • List of Countries
  • For 7 days
  • Water Temperature
  • Satellite Maps
  • Weather Map
  • Weather Widgets
  • user-avatar
    Login

    Hourly Weather Kerns

    Today, 26 June, Wednesday

    Time Temperature Precipitation Wind Pressure Humidity
    00:00 +18°C° 0.1 mm 4 mps 763 mmHg 96%
    01:00 +18°C° 0.1 mm 4 mps 763 mmHg 97%
    02:00 +18°C° 0.1 mm 4 mps 763 mmHg 97%
    03:00 +17°C° 0.1 mm 4 mps 762 mmHg 97%
    04:00 +18°C° 0 mm 4 mps 762 mmHg 97%
    05:00 +18°C° 0 mm 4 mps 762 mmHg 96%
    06:00 +18°C° 0 mm 4 mps 763 mmHg 96%
    07:00 +18°C° 0 mm 4 mps 763 mmHg 96%
    08:00 +20°C° 0 mm 5 mps 763 mmHg 87%
    09:00 +22°C° 0 mm 5 mps 763 mmHg 78%
    10:00 +23°C° 0 mm 5 mps 764 mmHg 72%
    11:00 +24°C° 0 mm 6 mps 763 mmHg 68%
    12:00 +26°C° 0 mm 6 mps 762 mmHg 63%
    13:00 +27°C° 0 mm 6 mps 762 mmHg 59%
    14:00 +27°C° 0 mm 6 mps 761 mmHg 60%
    15:00 +26°C° 0 mm 6 mps 761 mmHg 61%
    16:00 +25°C° 0 mm 5 mps 761 mmHg 62%
    17:00 +23°C° 0 mm 5 mps 761 mmHg 67%
    18:00 +21°C° 0 mm 5 mps 762 mmHg 72%
    19:00 +20°C° 0 mm 5 mps 762 mmHg 77%
    20:00 +19°C° 0 mm 5 mps 762 mmHg 80%
    21:00 +19°C° 0 mm 5 mps 763 mmHg 83%
    22:00 +17°C° 0 mm 5 mps 763 mmHg 85%
    23:00 +17°C° 0.1 mm 5 mps 763 mmHg 88%

    Tomorrow, 27 June, Thursday

    Time Temperature Precipitation Wind Pressure Humidity
    00:00 +17°C° 0.1 mm 5 mps 763 mmHg 91%
    01:00 +17°C° 0.1 mm 5 mps 762 mmHg 94%
    02:00 +17°C° 0.1 mm 5 mps 762 mmHg 94%
    03:00 +19°C° 0.1 mm 5 mps 762 mmHg 95%
    04:00 +19°C° 0.1 mm 5 mps 762 mmHg 96%
    05:00 +19°C° 0.1 mm 5 mps 762 mmHg 96%
    06:00 +19°C° 0.1 mm 5 mps 762 mmHg 97%
    07:00 +19°C° 0.1 mm 5 mps 762 mmHg 97%
    08:00 +21°C° 0.1 mm 5 mps 763 mmHg 89%
    09:00 +22°C° 0.1 mm 6 mps 763 mmHg 82%
    10:00 +24°C° 0.1 mm 6 mps 763 mmHg 75%
    11:00 +26°C° 0 mm 6 mps 763 mmHg 70%
    12:00 +26°C° 0 mm 7 mps 762 mmHg 66%
    13:00 +27°C° 0 mm 7 mps 762 mmHg 61%
    14:00 +27°C° 0 mm 7 mps 761 mmHg 61%
    15:00 +27°C° 0 mm 7 mps 761 mmHg 61%
    16:00 +27°C° 0 mm 6 mps 761 mmHg 61%
    17:00 +24°C° 0 mm 6 mps 761 mmHg 71%
    18:00 +22°C° 0 mm 6 mps 762 mmHg 81%
    19:00 +20°C° 0 mm 5 mps 762 mmHg 91%
    20:00 +20°C° 0.1 mm 5 mps 762 mmHg 93%
    21:00 +20°C° 0.1 mm 5 mps 763 mmHg 94%
    22:00 +19°C° 0.1 mm 5 mps 763 mmHg 96%
    23:00 +20°C° 0.1 mm 5 mps 763 mmHg 96%

    Day after tomorrow, 28 June, Friday

    Time Temperature Precipitation Wind Pressure Humidity
    00:00 +20°C° 0.1 mm 5 mps 762 mmHg 97%
    01:00 +21°C° 0.1 mm 5 mps 762 mmHg 97%
    02:00 +20°C° 0.1 mm 5 mps 762 mmHg 97%
    03:00 +20°C° 0.1 mm 5 mps 761 mmHg 98%
    04:00 +20°C° 0.1 mm 5 mps 761 mmHg 98%
    05:00 +20°C° 0.1 mm 5 mps 761 mmHg 97%
    06:00 +20°C° 0.1 mm 5 mps 762 mmHg 97%
    07:00 +21°C° 0.1 mm 5 mps 762 mmHg 97%
    08:00 +22°C° 0.1 mm 5 mps 762 mmHg 90%
    09:00 +25°C° 0.1 mm 5 mps 762 mmHg 82%
    10:00 +27°C° 0.1 mm 6 mps 763 mmHg 75%
    11:00 +27°C° 0.2 mm 6 mps 762 mmHg 73%
    12:00 +28°C° 0.2 mm 6 mps 762 mmHg 71%
    13:00 +28°C° 0.2 mm 6 mps 761 mmHg 68%
    14:00 +28°C° 0.2 mm 6 mps 761 mmHg 71%
    15:00 +27°C° 0.2 mm 6 mps 761 mmHg 73%
    16:00 +26°C° 0.2 mm 6 mps 761 mmHg 75%
    17:00 +24°C° 0.2 mm 6 mps 761 mmHg 82%
    18:00 +23°C° 0.2 mm 6 mps 761 mmHg 90%
    19:00 +22°C° 0.2 mm 5 mps 762 mmHg 97%
    20:00 +22°C° 0.3 mm 5 mps 762 mmHg 97%
    21:00 +22°C° 0.3 mm 5 mps 762 mmHg 97%
    22:00 +21°C° 0.3 mm 5 mps 763 mmHg 97%
    23:00 +21°C° 0.3 mm 5 mps 762 mmHg 97%

    29 June, Saturday

    Time Temperature Precipitation Wind Pressure Humidity
    00:00 +21°C° 0.3 mm 5 mps 762 mmHg 97%
    01:00 +21°C° 0.3 mm 5 mps 762 mmHg 96%
    02:00 +21°C° 0.3 mm 5 mps 762 mmHg 96%
    03:00 +21°C° 0.3 mm 5 mps 762 mmHg 97%
    04:00 +21°C° 0.3 mm 5 mps 762 mmHg 97%
    05:00 +21°C° 0.2 mm 5 mps 762 mmHg 97%
    06:00 +20°C° 0.2 mm 5 mps 762 mmHg 97%
    07:00 +20°C° 0.2 mm 5 mps 762 mmHg 97%
    08:00 +21°C° 0.1 mm 5 mps 763 mmHg 90%
    09:00 +23°C° 0.1 mm 5 mps 763 mmHg 83%
    10:00 +25°C° 0.1 mm 5 mps 763 mmHg 76%
    11:00 +26°C° 0.1 mm 5 mps 763 mmHg 72%
    12:00 +27°C° 0.1 mm 5 mps 762 mmHg 68%
    13:00 +27°C° 0.1 mm 5 mps 762 mmHg 65%
    14:00 +26°C° 0.1 mm 6 mps 762 mmHg 69%
    15:00 +24°C° 0.1 mm 6 mps 761 mmHg 74%
    16:00 +23°C° 0.1 mm 6 mps 761 mmHg 79%
    17:00 +22°C° 0.1 mm 6 mps 761 mmHg 84%
    18:00 +21°C° 0.1 mm 5 mps 761 mmHg 90%
    19:00 +19°C° 0.1 mm 5 mps 761 mmHg 96%
    20:00 +19°C° 0 mm 5 mps 762 mmHg 96%
    21:00 +18°C° 0 mm 4 mps 762 mmHg 96%
    22:00 +18°C° 0 mm 4 mps 763 mmHg 96%
    23:00 +18°C° 0 mm 4 mps 762 mmHg 96%

    30 June, Sunday

    Time Temperature Precipitation Wind Pressure Humidity
    00:00 +17°C° 0 mm 4 mps 762 mmHg 96%
    01:00 +17°C° 0 mm 4 mps 762 mmHg 96%
    02:00 +18°C° 0.1 mm 4 mps 761 mmHg 97%
    03:00 +18°C° 0.1 mm 4 mps 761 mmHg 97%
    04:00 +18°C° 0.1 mm 4 mps 761 mmHg 97%
    05:00 +17°C° 0 mm 4 mps 761 mmHg 97%
    06:00 +17°C° 0 mm 4 mps 762 mmHg 97%
    07:00 +17°C° 0 mm 4 mps 762 mmHg 97%
    08:00 +19°C° 0 mm 4 mps 762 mmHg 86%
    09:00 +21°C° 0 mm 5 mps 762 mmHg 75%
    10:00 +23°C° 0 mm 5 mps 762 mmHg 65%
    11:00 +24°C° 0 mm 6 mps 762 mmHg 60%
    12:00 +26°C° 0 mm 6 mps 761 mmHg 55%
    13:00 +28°C° 0 mm 7 mps 760 mmHg 51%
    14:00 +27°C° 0 mm 7 mps 760 mmHg 56%
    15:00 +26°C° 0 mm 7 mps 760 mmHg 60%
    16:00 +24°C° 0 mm 7 mps 760 mmHg 65%
    17:00 +22°C° 0.1 mm 6 mps 760 mmHg 73%
    18:00 +21°C° 0.1 mm 6 mps 760 mmHg 81%
    19:00 +19°C° 0.1 mm 5 mps 761 mmHg 89%
    20:00 +19°C° 0 mm 5 mps 761 mmHg 92%
    21:00 +17°C° 0 mm 5 mps 761 mmHg 94%
    22:00 +18°C° 0 mm 4 mps 761 mmHg 96%
    23:00 +18°C° 0 mm 4 mps 761 mmHg 96%

    1 July, Monday

    Time Temperature Precipitation Wind Pressure Humidity
    00:00 +18°C° 0 mm 4 mps 761 mmHg 96%
    01:00 +18°C° 0 mm 4 mps 761 mmHg 96%
    02:00 +18°C° 0.1 mm 4 mps 761 mmHg 96%
    03:00 +17°C° 0.1 mm 4 mps 760 mmHg 96%
    04:00 +17°C° 0.1 mm 4 mps 760 mmHg 96%
    05:00 +17°C° 0 mm 4 mps 760 mmHg 96%
    06:00 +17°C° 0 mm 4 mps 761 mmHg 95%
    07:00 +17°C° 0 mm 4 mps 761 mmHg 95%
    08:00 +19°C° 0.1 mm 5 mps 761 mmHg 87%
    09:00 +21°C° 0.1 mm 5 mps 761 mmHg 78%
    10:00 +25°C° 0.1 mm 5 mps 761 mmHg 70%
    11:00 +25°C° 0.1 mm 5 mps 761 mmHg 68%
    12:00 +26°C° 0.1 mm 5 mps 760 mmHg 66%
    13:00 +26°C° 0.1 mm 5 mps 760 mmHg 64%
    14:00 +26°C° 0 mm 5 mps 759 mmHg 64%
    15:00 +26°C° 0 mm 5 mps 759 mmHg 65%
    16:00 +26°C° 0 mm 5 mps 759 mmHg 65%
    17:00 +23°C° 0 mm 5 mps 759 mmHg 74%
    18:00 +21°C° 0 mm 4 mps 759 mmHg 83%
    19:00 +19°C° 0 mm 4 mps 760 mmHg 93%
    20:00 +19°C° 0 mm 4 mps 760 mmHg 94%
    21:00 +18°C° 0 mm 3 mps 760 mmHg 95%
    22:00 +18°C° 0 mm 3 mps 761 mmHg 96%
    23:00 +18°C° 0 mm 3 mps 760 mmHg 96%
    Show more